Dewpoint
56 56 54 53 54 54 54 53 52 54 54 56 55 55 56 57 57 57 57 57 57 58 57 56 57 58 58 58 58 58 59 59 58 57 56 55 54 51 50 47 47 47
58 57 57 55 55 54 52 52 55 56 56 56 55 55 55 56 55 53 54 55 55 55 56 57 57 57 57 55 54 53 52 52 51 51 49 49 51 49 48 48 47 47
58 58 56 54 54 54 55 56 56 56 55 54 54 54 54 53 53 54 55 55 54 55 54 53 53 54 54 53 53 52 52 52 51 51 51 50 49 47 48 50 50 49
58 58 55 55 55 56 57 56 55 54 54 53 53 54 54 55 54 53 54 56 54 54 54 54 52 50 50 51 50 49 48 48 49 49 49 51 53 52 50 49 48 47
59 57 55 55 57 57 56 55 54 54 53 53 53 53 54 51 50 50 51 52 51 52 51 49 50 51 51 49 48 47 48 49 50 50 50 50 50 50 50 50 49 50
58 56 55 56 57 56 56 55 55 54 53 52 52 53 51 51 50 51 50 50 51 49 48 47 48 49 47 47 46 47 49 49 49 49 50 50 50 50 49 49 49 48
57 55 55 55 55 55 55 55 55 54 52 52 52 50 51 51 50 47 47 49 48 49 47 48 47 46 47 46 46 48 48 47 47 48 49 49 49 49 49 48 49 49
57 55 54 53 53 53 53 54 55 54 53 52 50 51 51 50 48 46 47 46 46 47 48 48 48 47 48 48 48 47 46 49 48 47 48 49 49 48 47 49 49 47
56 54 54 53 52 52 52 53 54 54 53 53 52 51 52 50 47 47 45 45 46 46 46 46 46 46 50 48 46 46 47 49 50 48 49 49 47 47 48 47 47 47
56 54 54 54 52 52 52 53 53 52 53 53 52 51 49 51 51 49 47 47 45 44 44 45 46 50 48 46 49 50 50 49 48 49 50 47 47 46 46 46 46 47
57 55 55 54 54 54 53 54 53 52 52 51 52 50 49 50 51 49 49 45 45 43 45 46 47 48 45 46 50 50 48 47 47 48 48 47 47 47 51 48 49 47
56 56 55 55 55 55 55 55 55 54 53 52 52 50 50 51 49 49 48 48 45 43 44 46 46 48 46 47 49 50 48 47 48 47 49 49 47 48 49 48 48 47
56 56 56 56 55 55 57 56 55 55 55 52 51 50 51 50 46 47 48 48 48 46 44 46 47 48 46 47 48 50 49 48 48 50 52 50 48 49 49 50 51 50
56 56 56 56 56 56 56 56 56 55 54 54 51 50 49 51 48 48 48 48 46 48 47 46 46 47 48 47 47 50 49 52 50 51 51 49 51 52 54 55 55 54
57 57 56 56 56 55 55 56 55 54 55 55 54 51 50 49 51 51 48 47 47 47 49 48 46 48 50 48 50 51 51 52 51 51 51 51 55 54 54 55 55 55
58 57 57 56 56 56 56 56 56 55 55 54 54 54 51 49 49 50 50 47 48 48 48 50 49 49 51 48 49 50 51 51 52 51 53 53 54 54 54 54 55 54
57 57 57 56 56 56 57 57 56 57 56 56 55 54 53 53 53 52 50 49 47 48 48 50 50 50 45 43 44 46 50 52 52 51 53 53 54 54 53 54 53 54
57 57 57 56 56 56 56 56 56 56 55 55 55 56 56 55 53 53 53 53 51 49 51 51 50 48 41 42 42 44 47 52 54 54 54 54 54 54 54 54 54 54
56 56 57 56 56 55 56 55 54 54 55 55 54 54 55 55 55 54 54 54 53 52 51 51 50 44 43 41 41 43 45 51 54 54 53 53 54 54 54 54 54 53
46 50 50 54 54 54 54 54 54 53 54 54 53 54 54 54 54 54 54 54 53 52 51 51 50 45 43 42 42 41 44 49 54 54 53 53 53 53 53 55 55 54
39 41 42 44 50 53 53 52 53 52 53 53 53 53 53 53 54 53 53 53 53 52 51 51 52 45 42 43 43 43 44 48 54 54 53 53 53 52 51 54 54 54
35 36 38 41 43 44 46 46 48 51 52 52 52 52 52 53 53 53 53 52 52 52 51 51 52 46 42 41 42 42 43 48 50 52 52 52 52 52 51 53 54 54
34 35 36 39 40 42 43 44 44 44 47 51 51 51 51 52 53 53 53 53 51 52 51 51 51 49 44 43 41 41 44 48 48 49 50 51 51 52 53 54 54 54
35 36 38 39 38 39 40 41 43 43 43 45 44 47 51 53 52 52 52 52 52 53 53 52 52 50 46 43 43 40 45 49 49 49 48 48 51 52 52 50 48 48
37 38 38 38 37 38 39 38 39 40 40 41 43 44 44 47 52 53 52 52 53 53 53 53 52 51 47 44 43 42 44 48 49 49 48 47 49 51 51 49 46 45
37 38 38 38 38 37 38 38 38 37 37 39 40 42 44 45 44 46 51 53 52 52 53 54 53 53 50 45 44 42 42 48 50 50 49 48 49 52 51 47 43 42